Date String (YYYY-MM-DD hh:mm:ss) UTC,Instrument flags,Ambient pressure (hPa),Sample flow (lpm),Bypass flow (lpm),Sample temperature (°C),Ambient temperature (°C),ASC tube jacket temperature (°C),LED temperature (°C),Box temperature (°C),Sample RH (%),Span deviation,Mass concentration (μg/m³),Mass concentration (μg/m³),Mass concentration (μg/m³)
DateTimeUTC,F1_M11,P_M11,Q1_M11,Q2_M11,T1_M11,T2_M11,T3_M11,T4_M11,T5_M11,U1_M11,ZSPAN_M11,X0_M11,X2_M11,X1_M11
2022-01-29 13:00:00,,0829.4,5.00,0.00,22.5,21.8,00.0,31.5,24.2,03.7,0000.0,0002.47,0000.86,0000.29
2022-01-29 13:01:00,,0829.4,4.99,0.00,22.4,21.8,00.0,31.5,24.2,03.7,0000.0,0003.40,0001.01,0000.31
2022-01-29 13:02:00,,0829.4,5.01,0.00,22.4,21.8,00.0,31.5,24.2,03.6,0000.0,0004.53,0001.16,0000.32
2022-01-29 13:03:00,,0829.4,5.00,0.00,22.4,21.8,00.0,31.5,24.2,03.6,0000.0,0006.35,0001.27,0000.33
2022-01-29 13:04:00,,0829.3,5.00,0.00,22.4,21.7,00.0,31.4,24.2,03.6,0000.0,0007.81,0001.39,0000.33
2022-01-29 13:05:00,,0829.3,5.00,0.00,22.4,21.7,00.0,31.4,24.1,03.6,0000.0,0007.88,0001.43,0000.33
2022-01-29 13:06:00,,0829.2,4.98,0.00,22.4,21.7,00.0,31.4,24.1,03.5,0000.0,0007.90,0001.45,0000.33
2022-01-29 13:07:00,,0829.3,5.01,0.00,22.4,21.7,00.0,31.4,24.1,03.5,0000.0,0007.86,0001.44,0000.33
2022-01-29 13:08:00,,0829.2,5.00,0.00,22.4,21.7,00.0,31.4,24.1,03.4,0000.0,0007.82,0001.41,0000.33
2022-01-29 13:09:00,,0829.3,5.00,0.00,22.4,21.7,00.0,31.4,24.1,03.4,0000.0,0007.81,0001.40,0000.32
2022-01-29 13:10:00,,0829.3,5.01,0.00,22.4,21.9,00.0,31.4,24.2,03.4,0000.0,0007.71,0001.33,0000.32
2022-01-29 13:11:00,,0829.4,4.99,0.00,22.5,22.5,00.0,31.4,24.4,03.4,0000.0,0007.49,0001.26,0000.31
2022-01-29 13:12:00,,0829.4,5.00,0.00,22.6,23.2,00.0,31.5,24.6,03.4,0000.0,0007.45,0001.15,0000.30
2022-01-29 13:13:00,,0829.4,5.00,0.00,22.7,23.2,00.0,31.5,24.7,03.4,0000.0,0007.54,0001.01,0000.28
2022-01-29 13:14:00,,0829.4,5.00,0.00,22.8,23.0,00.0,31.5,24.7,03.4,0000.0,0007.32,0000.93,0000.27
2022-01-29 13:15:00,,0829.5,5.01,0.00,22.8,22.9,00.0,31.5,24.7,03.4,0000.0,0006.89,0000.87,0000.27
2022-01-29 13:16:00,,0829.5,4.98,0.00,22.8,22.7,00.0,31.6,24.6,03.4,0000.0,0007.22,0000.89,0000.27
2022-01-29 13:17:00,,0829.5,5.00,0.00,22.8,22.6,00.0,31.6,24.6,03.4,0000.0,0007.84,0000.89,0000.28
2022-01-29 13:18:00,,0829.5,5.01,0.00,22.7,22.5,00.0,31.6,24.6,03.4,0000.0,0007.94,0000.90,0000.28
2022-01-29 13:19:00,,0829.5,4.99,0.00,22.7,22.4,00.0,31.6,24.6,03.4,0000.0,0008.54,0000.90,0000.28
2022-01-29 13:20:00,,0829.5,5.00,0.00,22.7,22.3,00.0,31.6,24.5,03.4,0000.0,0008.68,0000.96,0000.28
2022-01-29 13:21:00,,0829.5,5.01,0.00,22.7,22.2,00.0,31.6,24.5,03.4,0000.0,0010.24,0001.09,0000.30
2022-01-29 13:22:00,,0829.5,5.01,0.00,22.7,22.2,00.0,31.6,24.5,03.4,0000.0,0010.56,0001.14,0000.31
2022-01-29 13:23:00,,0829.5,5.00,0.00,22.7,22.1,00.0,31.6,24.5,03.5,0000.0,0010.37,0001.15,0000.33
2022-01-29 13:24:00,,0829.5,5.00,0.00,22.7,22.1,00.0,31.6,24.5,03.5,0000.0,0009.69,0001.14,0000.34
2022-01-29 13:25:00,,0829.5,4.99,0.00,22.7,22.1,00.0,31.6,24.5,03.5,0000.0,0008.80,0001.12,0000.35
2022-01-29 13:26:00,,0829.5,4.99,0.00,22.7,22.0,00.0,31.6,24.5,03.5,0000.0,0008.27,0001.13,0000.36
2022-01-29 13:27:00,,0829.4,4.99,0.00,22.7,22.0,00.0,31.6,24.4,03.5,0000.0,0008.07,0001.08,0000.36
2022-01-29 13:28:00,,0829.5,5.00,0.00,22.7,22.0,00.0,31.6,24.4,03.5,0000.0,0007.74,0001.07,0000.36
2022-01-29 13:29:00,,0829.5,5.00,0.00,22.7,22.0,00.0,31.6,24.4,03.5,0000.0,0008.20,0001.12,0000.36
2022-01-29 13:30:00,,0829.5,5.01,0.00,22.6,22.0,00.0,31.6,24.4,03.5,0000.0,0008.05,0001.16,0000.38
2022-01-29 13:31:00,,0829.5,5.01,0.00,22.6,22.0,00.0,31.6,24.4,03.5,0000.0,0008.07,0001.06,0000.38
2022-01-29 13:32:00,,0829.5,4.99,0.00,22.6,22.0,00.0,31.6,24.4,03.5,0000.0,0006.40,0000.93,0000.37
2022-01-29 13:33:00,,0829.5,4.99,0.00,22.6,22.0,00.0,31.6,24.4,03.5,0000.0,0006.20,0000.89,0000.36
2022-01-29 13:34:00,,0829.5,5.01,0.00,22.6,21.9,00.0,31.6,24.4,03.5,0000.0,0005.98,0000.93,0000.36
2022-01-29 13:35:00,,0829.5,5.00,0.00,22.6,21.9,00.0,31.6,24.3,03.5,0000.0,0005.98,0000.94,0000.35
2022-01-29 13:36:00,,0829.5,4.99,0.00,22.6,21.9,00.0,31.6,24.3,03.5,0000.0,0005.99,0000.93,0000.35
2022-01-29 13:37:00,,0829.5,5.00,0.00,22.6,21.9,00.0,31.6,24.3,03.5,0000.0,0005.73,0000.89,0000.34
2022-01-29 13:38:00,,0829.5,5.01,0.00,22.6,21.9,00.0,31.5,24.3,03.5,0000.0,0005.54,0000.90,0000.34
2022-01-29 13:39:00,,0829.5,5.00,0.00,22.6,21.8,00.0,31.5,24.3,03.5,0000.0,0005.38,0000.89,0000.34
2022-01-29 13:40:00,,0829.5,5.00,0.00,22.5,21.8,00.0,31.5,24.3,03.5,0000.0,0004.54,0000.83,0000.34
2022-01-29 13:41:00,,0829.5,5.00,0.00,22.5,21.8,00.0,31.5,24.3,03.6,0000.0,0003.69,0000.80,0000.33
2022-01-29 13:42:00,,0829.5,5.00,0.00,22.5,21.8,00.0,31.5,24.2,03.6,0000.0,0003.33,0000.78,0000.32
2022-01-29 13:43:00,,0829.5,5.00,0.00,22.5,21.8,00.0,31.5,24.2,03.6,0000.0,0002.94,0000.81,0000.31
2022-01-29 13:44:00,,0829.5,5.00,0.00,22.5,21.8,00.0,31.5,24.2,03.6,0000.0,0002.54,0000.82,0000.30
2022-01-29 13:45:00,,0829.5,5.00,0.00,22.5,21.8,00.0,31.5,24.2,03.6,0000.0,0002.45,0000.75,0000.28
2022-01-29 13:46:00,,0829.5,5.00,0.00,22.5,21.8,00.0,31.5,24.2,03.5,0000.0,0002.33,0000.71,0000.28
2022-01-29 13:47:00,,0829.6,5.00,0.00,22.4,21.7,00.0,31.5,24.2,03.5,0000.0,0002.32,0000.73,0000.28
2022-01-29 13:48:00,,0829.6,5.00,0.00,22.4,21.7,00.0,31.5,24.2,03.6,0000.0,0002.28,0000.72,0000.27
2022-01-29 13:49:00,,0829.6,5.00,0.00,22.4,21.7,00.0,31.4,24.1,03.6,0000.0,0002.20,0000.69,0000.26
2022-01-29 13:50:00,,0829.5,5.00,0.00,22.4,21.7,00.0,31.4,24.1,03.6,0000.0,0002.04,0000.65,0000.26
2022-01-29 13:51:00,,0829.6,5.00,0.00,22.4,21.7,00.0,31.4,24.1,03.6,0000.0,0001.93,0000.63,0000.25
2022-01-29 13:52:00,,0829.6,4.99,0.00,22.4,21.7,00.0,31.4,24.1,03.6,0000.0,0001.59,0000.56,0000.25
2022-01-29 13:53:00,,0829.6,5.01,0.00,22.4,21.7,00.0,31.4,24.1,03.6,0000.0,0001.41,0000.52,0000.24
2022-01-29 13:54:00,,0829.6,5.01,0.00,22.4,21.7,00.0,31.4,24.1,03.6,0000.0,0001.61,0000.48,0000.24
2022-01-29 13:55:00,,0829.6,4.99,0.00,22.4,21.7,00.0,31.4,24.1,03.6,0000.0,0002.47,0000.44,0000.25
2022-01-29 13:56:00,,0829.6,5.01,0.00,22.4,21.7,00.0,31.4,24.1,03.6,0000.0,0002.38,0000.43,0000.25
2022-01-29 13:57:00,,0829.7,4.99,0.00,22.4,22.1,00.0,31.4,24.2,03.6,0000.0,0002.36,0000.43,0000.24
2022-01-29 13:58:00,,0829.7,5.00,0.00,22.5,22.9,00.0,31.5,24.5,03.6,0000.0,0002.31,0000.41,0000.24
2022-01-29 13:59:00,,0829.7,5.00,0.00,22.7,23.2,00.0,31.5,24.6,03.5,0000.0,0002.29,0000.40,0000.24
